Flag for Germany Weather past 2 weeks in Freiberg, Saxony, Germany

Now
72 °F

Passing clouds.


Feels Like: 77 °F
Forecast: 54 / 75 °F
Wind: 6 mph from Northwest

Location: Dresden-Klotzsche

Current Time: May 4, 2015 at 6:11:01 PM

Latest Report: May 4, 2015 at 5:20 PM


Visibility: N/A

Pressure: 29.83 "Hg

Humidity: 50%

Dew point: 52 °F

Location of FreibergLocation

Historic Weather in Freiberg — Graph

°F

Freiberg temperature yesterday

Maximum temperature yesterday: 66 °F (at 2:50 PM)
Minimum temperature yesterday: 41 °F (at 2:50 AM)
Average temperature yesterday: 55 °F

Past Weeks' High & Low Weather Summary

 TemperatureHumidityPressure
High72 °F (Apr 27, 1:20 PM)100% (Apr 23, 3:50 AM)30.30 "Hg (Apr 23, 3:50 AM)
Low34 °F (Apr 23, 5:20 AM)24% (Apr 21, 3:50 PM)29.53 "Hg (Apr 27, 3:50 PM)
Average52 °F66%29.95 "Hg
* Reported Apr 19 4:20 PM — May 4 4:50 PM, Freiberg, Weather by CustomWeather, © 2015

Note: Actual official high and low records may vary slightly from our data, if they occured in-between our weather recording intervals... More about our weather records

Advertising

Freiberg weather history for previous 24 hours

 ConditionsComfort  
Time TempWeatherWind HumidityBarometerVisibility
4:50 PM
Mon, May 4
72 °FPassing clouds.7 mph53%29.83 "HgN/A
4:20 PM70 °FPassing clouds.6 mph53%29.83 "HgN/A
3:50 PM70 °FScattered clouds.5 mph53%29.83 "HgN/A
3:20 PM70 °FScattered clouds.8 mph53%29.86 "HgN/A
2:50 PM70 °FScattered clouds.6 mph53%29.86 "HgN/A
2:20 PM70 °FScattered clouds.6 mph57%29.86 "HgN/A
1:50 PM68 °FScattered clouds.6 mph56%29.83 "HgN/A
1:20 PM66 °FScattered clouds.6 mph60%29.86 "HgN/A
12:50 PM66 °FPartly sunny.7 mph64%29.86 "HgN/A
12:20 PM66 °FScattered clouds.7 mph64%29.86 "HgN/A
11:50 AM66 °FScattered clouds.6 mph60%29.83 "HgN/A
11:20 AM64 °FBroken clouds.9 mph68%29.83 "HgN/A
10:50 AM63 °FBroken clouds.8 mph77%29.83 "HgN/A
10:20 AM63 °FBroken clouds.7 mph73%29.83 "HgN/A
9:50 AM63 °FPartly sunny.7 mph77%29.83 "HgN/A
9:20 AM61 °FPartly sunny.9 mph83%29.83 "HgN/A
8:50 AM61 °FBroken clouds.7 mph83%29.83 "HgN/A
8:20 AM61 °FBroken clouds.9 mph83%29.80 "HgN/A
7:50 AM59 °FBroken clouds.8 mph88%29.80 "HgN/A
7:20 AM57 °FBroken clouds.6 mph94%29.80 "HgN/A
6:50 AM57 °FBroken clouds.7 mph94%29.77 "HgN/A
6:20 AM57 °FPassing clouds.7 mph88%29.77 "HgN/A
5:50 AM55 °FPassing clouds.7 mph94%29.74 "HgN/A
5:20 AM54 °FPartly cloudy.10 mph94%29.74 "HgN/A
4:50 AM55 °FPassing clouds.10 mph94%29.74 "HgN/A
4:20 AM55 °FPassing clouds.10 mph88%29.71 "HgN/A
3:50 AM55 °FPassing clouds.9 mph88%29.71 "HgN/A
3:20 AM54 °FPassing clouds.9 mph94%29.71 "HgN/A
2:50 AM54 °FClear.10 mph94%29.71 "Hg10 mi
2:20 AM54 °FClear.10 mph94%29.71 "Hg10 mi
1:50 AM54 °FClear.13 mph94%29.71 "Hg10 mi
1:20 AM54 °FPartly cloudy.13 mph94%29.71 "HgN/A
12:50 AM54 °FLight rain. Passing clouds.14 mph94%29.71 "HgN/A
12:20 AM54 °FPassing clouds.14 mph94%29.71 "HgN/A
11:50 PM
Sun, May 3
54 °FLight rain. Low clouds.15 mph94%29.71 "Hg6 mi
11:20 PM54 °FLight rain. Low clouds.14 mph94%29.71 "Hg6 mi
10:50 PM54 °FLight rain. Low clouds.15 mph94%29.74 "Hg6 mi
10:20 PM55 °FLight rain. Overcast.12 mph94%29.74 "HgN/A
9:50 PM55 °FLight rain. Overcast.12 mph94%29.74 "HgN/A
9:20 PM55 °FLight rain. Partly sunny.13 mph94%29.74 "HgN/A
8:50 PM59 °FLight rain. Partly sunny.17 mph72%29.74 "HgN/A
8:20 PM61 °FPartly sunny.12 mph63%29.71 "HgN/A
7:50 PM61 °FPartly sunny.13 mph63%29.74 "HgN/A
7:20 PM61 °FPartly sunny.9 mph63%29.74 "HgN/A
6:50 PM61 °FSunny.12 mph59%29.74 "Hg10 mi
6:20 PM63 °FMostly cloudy.9 mph56%29.74 "HgN/A
Weather by CustomWeather, © 2015

See weather overviewHow to use our weather pages